Regional Weather Roundup
Issued by NWS

Home | Current Version | Previous Version | Text Only | Print | Product List | Glossary Off
Versions: 1 2 3 4 5 6 7 8 9 10 11 12 13 14 15 16 17 18 19 20 21 22 23 24 25 26 27 28 29 30 31 32 33 34 35 36 37 38 39 40 41 42 43 44 45 46 47 48 49 50

848
ASUS43 KTOP 171708
RWRKS

WEATHER ROUNDUP FOR KANSAS
NATIONAL WEATHER SERVICE GOODLAND KS
1100 AM CST WED JAN 17 2018

NOTE:  "FAIR" INDICATES FEW OR NO CLOUDS BELOW 12,000 FEET WITH NO
SIGNIFICANT WEATHER AND/OR OBSTRUCTIONS TO VISIBILITY.

KSZ001>006-013>018-027>032-041>047-171800-
NORTHWEST KANSAS

CITY           SKY/WX    TMP DP  RH WIND       PRES   REMARKS
GOODLAND       SUNNY     34  15  46 NW8       30.31R
HAYS           CLOUDY    23   9  55 SW10      30.48S WCI  12
HILL CITY      CLOUDY    21   3  45 SW12      30.43F WCI   9
RUSSELL        CLOUDY    20   8  60 S16       30.48S WCI   6
$$

KSZ061>065-074>080-084>089-171800-
SOUTHWEST KANSAS

CITY           SKY/WX    TMP DP  RH WIND       PRES   REMARKS
DODGE CITY     SUNNY     24   2  38 SW14      30.44R WCI  12
ELKHART        SUNNY     33  16  49 SW15      30.33S WCI  23
GARDEN CITY    SUNNY     23   3  42 SW13      30.38S WCI  11
GREAT BEND     CLOUDY    24   8  50 S15       30.51S WCI  11
LIBERAL        SUNNY     33   7  33 SW15G22   30.40S WCI  23
PRATT          SUNNY     24  -1  33 S14       30.52F WCI  12
$$

KSZ066>073-081>083-090>101-171800-
SOUTHEAST KANSAS

CITY           SKY/WX    TMP DP  RH WIND       PRES   REMARKS
CHANUTE        CLOUDY    14   8  77 SW8       30.72R
COFFEYVILLE    CLOUDY    14   9  80 SW6       30.75S
HUTCHINSON     SUNNY     21   9  59 S14       30.58S WCI   8
MEDICINE LODGE   N/A     20   2  45 S10       30.57F WCI   9
NEWTON         CLOUDY    20   9  62 S15       30.60F WCI   6
PARSONS        CLOUDY    14   8  77 VRB6      30.74R
WICHITA INTL   SUNNY     20   8  60 S13       30.62F WCI   7
WICHITA JABRA  CLOUDY    18   9  68 S12       30.62S WCI   5
WICHITA MCCONL CLOUDY    19   8  61 SW13      30.63S WCI   6
WINFIELD       SUNNY     20  10  65 S10       30.68S WCI   9
$$

KSZ007>012-019>026-033>040-048>060-102>105-171800-
NORTHEAST KANSAS

CITY           SKY/WX    TMP DP  RH WIND       PRES   REMARKS
CONCORDIA      CLOUDY    17   6  62 SW16      30.53F WCI   2
EMPORIA        CLOUDY    17   9  70 SW13      30.65S WCI   4
LAWRENCE       CLOUDY    16   8  71 SW9       30.67F
MANHATTAN      MIX PCPN  20   9  62 SW12      30.61F WCI   8
MARYSVILLE     CLOUDY    16   5  62 SW13G20   30.57S WCI   2
OLATHE IND     CLOUDY    15   8  73 SW13      30.66F WCI   1
OLATHE EXE     CLOUDY    14   8  77 SW10      30.65F WCI   1
SALINA         CLOUDY    19   8  62 S9        30.59S
TOPEKA BILLARD CLOUDY    18   8  65 SW12      30.65F WCI   5
TOPEKA FORBES  CLOUDY    17   9  70 SW10      30.64S WCI   5
$$




USA.gov is the U.S. government's official web portal to all federal, state and local government web resources and services.